Previsão horária em Barra da Estiva

Hoje, 21 Outubro, Quarta-feira

Tempo Temperatura Precipitação Vento Pressão Humidade
00:00 +20°C° 0 mm 1 m/s 676 mmHg 92%
01:00 +20°C° 0 mm 1 m/s 676 mmHg 92%
02:00 +20°C° 0 mm 1 m/s 675 mmHg 92%
03:00 +20°C° 0 mm 1 m/s 675 mmHg 91%
04:00 +20°C° 0 mm 1 m/s 675 mmHg 90%
05:00 +20°C° 0 mm 1 m/s 676 mmHg 89%
06:00 +19°C° 0 mm 2 m/s 676 mmHg 87%
07:00 +21°C° 0 mm 2 m/s 677 mmHg 77%
08:00 +23°C° 0 mm 2 m/s 678 mmHg 66%
09:00 +25°C° 0 mm 3 m/s 678 mmHg 56%
10:00 +27°C° 0 mm 3 m/s 678 mmHg 49%
11:00 +28°C° 0 mm 3 m/s 678 mmHg 41%
12:00 +30°C° 0 mm 3 m/s 678 mmHg 34%
13:00 +30°C° 0 mm 3 m/s 677 mmHg 32%
14:00 +31°C° 0 mm 3 m/s 676 mmHg 30%
15:00 +31°C° 0 mm 3 m/s 675 mmHg 28%
16:00 +29°C° 0 mm 3 m/s 675 mmHg 32%
17:00 +28°C° 0 mm 3 m/s 675 mmHg 36%
18:00 +26°C° 0 mm 2 m/s 675 mmHg 40%
19:00 +25°C° 0 mm 2 m/s 675 mmHg 44%
20:00 +24°C° 0 mm 2 m/s 675 mmHg 48%
21:00 +23°C° 0 mm 2 m/s 676 mmHg 53%
22:00 +21°C° 0 mm 2 m/s 675 mmHg 58%
23:00 +21°C° 0 mm 1 m/s 675 mmHg 63%

Amanhã, 22 Outubro, Quinta-feira

Tempo Temperatura Precipitação Vento Pressão Humidade
00:00 +20°C° 0 mm 1 m/s 675 mmHg 69%
01:00 +20°C° 0 mm 1 m/s 675 mmHg 72%
02:00 +19°C° 0 mm 1 m/s 674 mmHg 75%
03:00 +19°C° 0 mm 1 m/s 674 mmHg 78%
04:00 +18°C° 0 mm 1 m/s 674 mmHg 79%
05:00 +18°C° 0 mm 1 m/s 675 mmHg 80%
06:00 +17°C° 0 mm 2 m/s 675 mmHg 82%
07:00 +19°C° 0 mm 2 m/s 676 mmHg 71%
08:00 +21°C° 0 mm 2 m/s 676 mmHg 60%
09:00 +24°C° 0 mm 3 m/s 677 mmHg 50%
10:00 +26°C° 0 mm 3 m/s 677 mmHg 44%
11:00 +28°C° 0 mm 3 m/s 677 mmHg 39%
12:00 +30°C° 0 mm 4 m/s 677 mmHg 34%
13:00 +30°C° 0 mm 4 m/s 676 mmHg 33%
14:00 +30°C° 0 mm 3 m/s 675 mmHg 32%
15:00 +31°C° 0 mm 3 m/s 675 mmHg 31%
16:00 +29°C° 0 mm 3 m/s 675 mmHg 35%
17:00 +28°C° 0 mm 2 m/s 675 mmHg 39%
18:00 +26°C° 0 mm 2 m/s 675 mmHg 43%
19:00 +25°C° 0 mm 3 m/s 675 mmHg 51%
20:00 +24°C° 0 mm 3 m/s 675 mmHg 58%
21:00 +22°C° 0 mm 4 m/s 676 mmHg 65%
22:00 +21°C° 0 mm 3 m/s 675 mmHg 68%
23:00 +21°C° 0 mm 3 m/s 675 mmHg 71%

Depois de amanhã, 23 Outubro, Sexta-feira

Tempo Temperatura Precipitação Vento Pressão Humidade
00:00 +20°C° 0 mm 2 m/s 675 mmHg 73%
01:00 +20°C° 0 mm 2 m/s 675 mmHg 76%
02:00 +20°C° 0 mm 2 m/s 674 mmHg 78%
03:00 +19°C° 0 mm 2 m/s 674 mmHg 81%
04:00 +19°C° 0 mm 2 m/s 675 mmHg 81%
05:00 +19°C° 0 mm 2 m/s 675 mmHg 82%
06:00 +19°C° 0 mm 2 m/s 675 mmHg 82%
07:00 +21°C° 0.1 mm 3 m/s 676 mmHg 76%
08:00 +22°C° 0.1 mm 3 m/s 677 mmHg 70%
09:00 +23°C° 0.1 mm 4 m/s 677 mmHg 63%
10:00 +25°C° 0.1 mm 4 m/s 677 mmHg 60%
11:00 +26°C° 0.1 mm 3 m/s 677 mmHg 57%
12:00 +26°C° 0.1 mm 3 m/s 676 mmHg 53%
13:00 +26°C° 0.2 mm 2 m/s 676 mmHg 56%
14:00 +25°C° 0.2 mm 1 m/s 675 mmHg 60%
15:00 +24°C° 0.2 mm 1 m/s 674 mmHg 63%
16:00 +24°C° 0 mm 1 m/s 674 mmHg 64%
17:00 +24°C° 0 mm 1 m/s 674 mmHg 66%
18:00 +21°C° 0 mm 0 m/s 675 mmHg 67%
19:00 +22°C° 0.1 mm 1 m/s 675 mmHg 71%
20:00 +21°C° 0.1 mm 2 m/s 675 mmHg 75%
21:00 +20°C° 0.1 mm 3 m/s 675 mmHg 79%
22:00 +20°C° 0 mm 2 m/s 675 mmHg 81%
23:00 +19°C° 0 mm 2 m/s 675 mmHg 84%

24 Outubro, Sábado

Tempo Temperatura Precipitação Vento Pressão Humidade
00:00 +19°C° 0 mm 2 m/s 674 mmHg 87%
01:00 +19°C° 0.1 mm 2 m/s 674 mmHg 87%
02:00 +19°C° 0.1 mm 2 m/s 674 mmHg 87%
03:00 +18°C° 0.1 mm 2 m/s 673 mmHg 88%
04:00 +18°C° 0 mm 2 m/s 674 mmHg 87%
05:00 +18°C° 0 mm 2 m/s 674 mmHg 86%
06:00 +18°C° 0 mm 2 m/s 675 mmHg 86%
07:00 +19°C° 0 mm 2 m/s 675 mmHg 80%
08:00 +20°C° 0 mm 3 m/s 675 mmHg 75%
09:00 +21°C° 0 mm 3 m/s 676 mmHg 70%
10:00 +23°C° 0 mm 4 m/s 676 mmHg 62%
11:00 +26°C° 0 mm 4 m/s 675 mmHg 54%
12:00 +28°C° 0 mm 5 m/s 675 mmHg 46%
13:00 +29°C° 0 mm 5 m/s 675 mmHg 44%
14:00 +29°C° 0 mm 5 m/s 674 mmHg 41%
15:00 +30°C° 0 mm 5 m/s 673 mmHg 39%
16:00 +28°C° 0 mm 4 m/s 673 mmHg 42%
17:00 +27°C° 0 mm 3 m/s 673 mmHg 45%
18:00 +26°C° 0 mm 2 m/s 673 mmHg 48%
19:00 +25°C° 0 mm 3 m/s 673 mmHg 54%
20:00 +24°C° 0 mm 3 m/s 674 mmHg 60%
21:00 +22°C° 0 mm 3 m/s 674 mmHg 66%
22:00 +21°C° 0 mm 3 m/s 674 mmHg 71%
23:00 +20°C° 0 mm 2 m/s 673 mmHg 76%

25 Outubro, Domingo

Tempo Temperatura Precipitação Vento Pressão Humidade
00:00 +20°C° 0 mm 2 m/s 673 mmHg 82%
01:00 +19°C° 0 mm 2 m/s 672 mmHg 83%
02:00 +19°C° 0 mm 2 m/s 672 mmHg 84%
03:00 +19°C° 0 mm 3 m/s 672 mmHg 85%
04:00 +19°C° 0 mm 3 m/s 672 mmHg 84%
05:00 +19°C° 0 mm 3 m/s 673 mmHg 83%
06:00 +20°C° 0 mm 3 m/s 673 mmHg 82%
07:00 +21°C° 0 mm 3 m/s 674 mmHg 75%
08:00 +24°C° 0 mm 3 m/s 674 mmHg 67%
09:00 +25°C° 0 mm 4 m/s 675 mmHg 60%
10:00 +27°C° 0.1 mm 4 m/s 674 mmHg 55%
11:00 +28°C° 0.1 mm 4 m/s 674 mmHg 49%
12:00 +30°C° 0.1 mm 4 m/s 674 mmHg 44%
13:00 +29°C° 0.3 mm 3 m/s 673 mmHg 47%
14:00 +29°C° 0.3 mm 3 m/s 672 mmHg 50%
15:00 +28°C° 0.3 mm 2 m/s 672 mmHg 52%
16:00 +27°C° 0.3 mm 2 m/s 672 mmHg 56%
17:00 +26°C° 0.3 mm 2 m/s 672 mmHg 60%
18:00 +25°C° 0.3 mm 1 m/s 672 mmHg 63%
19:00 +24°C° 0.6 mm 1 m/s 672 mmHg 69%
20:00 +23°C° 0.6 mm 1 m/s 672 mmHg 74%
21:00 +20°C° 0.6 mm 0 m/s 673 mmHg 80%
22:00 +22°C° 2.5 mm 1 m/s 673 mmHg 84%
23:00 +21°C° 2.5 mm 1 m/s 673 mmHg 88%

26 Outubro, Segunda-feira

Tempo Temperatura Precipitação Vento Pressão Humidade
00:00 +21°C° 2.5 mm 1 m/s 673 mmHg 92%
01:00 +21°C° 2.6 mm 1 m/s 672 mmHg 93%
02:00 +20°C° 2.6 mm 2 m/s 672 mmHg 94%
03:00 +19°C° 2.6 mm 2 m/s 672 mmHg 95%
04:00 +20°C° 0.1 mm 2 m/s 672 mmHg 94%
05:00 +21°C° 0.1 mm 1 m/s 672 mmHg 93%
06:00 +21°C° 0.1 mm 1 m/s 672 mmHg 92%
07:00 +22°C° 0 mm 1 m/s 673 mmHg 88%
08:00 +21°C° 0 mm 2 m/s 673 mmHg 84%
09:00 +23°C° 0 mm 2 m/s 674 mmHg 80%
10:00 +25°C° 0.3 mm 2 m/s 673 mmHg 72%
11:00 +27°C° 0.3 mm 2 m/s 673 mmHg 65%
12:00 +28°C° 0.3 mm 2 m/s 673 mmHg 58%
13:00 +28°C° 1.3 mm 2 m/s 673 mmHg 58%
14:00 +28°C° 1.3 mm 1 m/s 672 mmHg 59%
15:00 +28°C° 1.3 mm 1 m/s 671 mmHg 60%
16:00 +27°C° 0.5 mm 1 m/s 671 mmHg 64%
17:00 +26°C° 0.5 mm 1 m/s 671 mmHg 68%
18:00 +25°C° 0.5 mm 1 m/s 671 mmHg 71%
19:00 +24°C° 0.4 mm 1 m/s 671 mmHg 74%
20:00 +24°C° 0.4 mm 1 m/s 671 mmHg 76%
21:00 +23°C° 0.4 mm 2 m/s 672 mmHg 79%
22:00 +21°C° 0.6 mm 2 m/s 672 mmHg 81%
23:00 +21°C° 0.6 mm 2 m/s 671 mmHg 83%

27 Outubro, Terça-feira

Tempo Temperatura Precipitação Vento Pressão Humidade
00:00 +21°C° 0.6 mm 2 m/s 671 mmHg 85%
01:00 +21°C° 1.7 mm 2 m/s 671 mmHg 86%
02:00 +21°C° 1.7 mm 1 m/s 671 mmHg 87%
03:00 +21°C° 1.7 mm 1 m/s 671 mmHg 88%
04:00 +21°C° 1.6 mm 1 m/s 671 mmHg 89%
05:00 +21°C° 1.6 mm 1 m/s 671 mmHg 90%
06:00 +21°C° 1.6 mm 1 m/s 672 mmHg 91%
07:00 +21°C° 4.2 mm 1 m/s 672 mmHg 92%
08:00 +21°C° 4.2 mm 1 m/s 672 mmHg 92%
09:00 +20°C° 4.2 mm 2 m/s 673 mmHg 92%
10:00 +20°C° 0.5 mm 2 m/s 672 mmHg 91%
11:00 +21°C° 0.5 mm 2 m/s 672 mmHg 89%
12:00 +21°C° 0.5 mm 2 m/s 672 mmHg 88%
13:00 +23°C° 0.5 mm 2 m/s 672 mmHg 83%
14:00 +24°C° 0.5 mm 2 m/s 671 mmHg 78%
15:00 +25°C° 0.5 mm 2 m/s 671 mmHg 73%
16:00 +24°C° 0.4 mm 2 m/s 671 mmHg 78%
17:00 +23°C° 0.4 mm 2 m/s 671 mmHg 83%
18:00 +22°C° 0.4 mm 1 m/s 670 mmHg 88%
19:00 +22°C° 0.4 mm 1 m/s 671 mmHg 89%
20:00 +21°C° 0.4 mm 2 m/s 671 mmHg 90%
21:00 +21°C° 0.4 mm 2 m/s 672 mmHg 91%
22:00 +20°C° 0.5 mm 2 m/s 672 mmHg 92%
23:00 +20°C° 0.5 mm 2 m/s 672 mmHg 92%
Mostrar mais